Location: Sungai Bunut
(2.6333°N, 113.7333°E)
Time: 09:48:51
(UTC+00:00)

Courier 1B - Pass Details

Date: 07 December 2023
Orbit: 962 x 1209 km, 28.3° (Epoch: 03 March)

Event Time Altitude Azimuth Distance (km) Brightness Sun altitude
Exits shadow 21:19:44 - 247° (WSW) 3,602 10.0 -14.1°
Reaches altitude 10° 21:21:14 10° 249° (WSW) 3,097 9.7 -13.8°
Maximum altitude 21:28:51 66° 330° (NNW) 1,232 7.8 -12.0°
Drops below altitude 10° 21:36:02 10° 51° (NE) 2,927 10.4 -10.4°
Sets 21:38:44 0° 54° (NE) 3,845 11.1 -9.7°
